THOR 7

Last updated on Thu Oct 30 2025 00:02:50 GMT+0000 (Coordinated Universal Time)

1 40613U 15022A 25302.32825029 .00000002 00000+0 00000+0 0 9997 2 40613 0.0371 83.7659 0002529 126.7137 304.9746 1.00271091 38500
UTC large
Height (km)
Speed (km/s)
/
Latitude / Longitude
Inclination (degrees)
Orbital Period (minutes)
Azimuth
Elevation
Range (km)
Doppler Factor

Next 0 passes for location: London (51.5072 / 0.1276)

Sorry there are no passes over London.